TimeEST,TemperatureF,Dew PointF,Humidity,Sea Level PressureIn,VisibilityMPH,Wind Direction,Wind SpeedMPH,Gust SpeedMPH,PrecipitationIn,Events,Conditions,WindDirDegrees,DateUTC
12:53 AM,30.0,21.0,69,30.15,10.0,North,17.3,25.3,N/A,,Mostly Cloudy,360,2013-02-22 05:53:00
1:53 AM,28.9,21.0,72,30.19,10.0,North,15.0,25.3,N/A,,Partly Cloudy,360,2013-02-22 06:53:00
2:53 AM,28.9,19.9,69,30.22,10.0,North,15.0,-,N/A,,Partly Cloudy,360,2013-02-22 07:53:00
3:53 AM,28.0,19.0,69,30.24,10.0,North,16.1,-,N/A,,Partly Cloudy,360,2013-02-22 08:53:00
4:53 AM,28.0,19.0,69,30.26,10.0,North,15.0,-,N/A,,Partly Cloudy,360,2013-02-22 09:53:00
5:53 AM,27.0,18.0,69,30.27,10.0,North,13.8,-,N/A,,Partly Cloudy,10,2013-02-22 10:53:00
6:53 AM,26.1,18.0,71,30.31,10.0,North,9.2,-,N/A,,Partly Cloudy,10,2013-02-22 11:53:00
7:53 AM,28.0,18.0,66,30.33,10.0,North,12.7,-,N/A,,Clear,10,2013-02-22 12:53:00
8:53 AM,28.9,18.0,64,30.36,10.0,NNE,17.3,-,N/A,,Partly Cloudy,20,2013-02-22 13:53:00
9:53 AM,30.0,19.0,64,30.39,10.0,North,16.1,-,N/A,,Partly Cloudy,10,2013-02-22 14:53:00
10:53 AM,30.9,19.0,61,30.39,10.0,North,13.8,-,N/A,,Scattered Clouds,350,2013-02-22 15:53:00
11:53 AM,33.1,19.0,56,30.37,10.0,North,13.8,20.7,N/A,,Scattered Clouds,10,2013-02-22 16:53:00
12:53 PM,34.0,19.0,54,30.34,10.0,North,11.5,-,N/A,,Partly Cloudy,360,2013-02-22 17:53:00
1:53 PM,35.1,19.0,52,30.35,10.0,NNE,11.5,-,N/A,,Partly Cloudy,20,2013-02-22 18:53:00
2:53 PM,35.1,19.0,52,30.33,10.0,North,11.5,-,N/A,,Partly Cloudy,10,2013-02-22 19:53:00
3:53 PM,33.1,19.0,56,30.34,10.0,NNE,8.1,-,N/A,,Scattered Clouds,20,2013-02-22 20:53:00
4:53 PM,32.0,19.0,59,30.35,10.0,North,9.2,-,N/A,,Mostly Cloudy,360,2013-02-22 21:53:00
5:53 PM,30.0,18.0,61,30.35,10.0,NE,6.9,-,N/A,,Scattered Clouds,40,2013-02-22 22:53:00
6:53 PM,28.0,18.0,66,30.37,10.0,North,3.5,-,N/A,,Partly Cloudy,360,2013-02-22 23:53:00
7:53 PM,26.1,18.0,71,30.36,10.0,NE,5.8,-,N/A,,Partly Cloudy,40,2013-02-23 00:53:00
8:53 PM,25.0,18.0,75,30.36,10.0,Calm,Calm,-,N/A,,Partly Cloudy,0,2013-02-23 01:53:00
9:53 PM,23.0,17.1,78,30.37,10.0,WNW,3.5,-,N/A,,Scattered Clouds,300,2013-02-23 02:53:00
10:53 PM,21.0,18.0,88,30.38,10.0,Calm,Calm,-,N/A,,Scattered Clouds,0,2013-02-23 03:53:00
11:53 PM,21.0,18.0,88,30.36,10.0,Calm,Calm,-,N/A,,Mostly Cloudy,0,2013-02-23 04:53:00